Location: Martz Observatory
(42.0083°N, 79.0667°W)
Time: 19:51:35
(UTC-04:00)

Meteor 1-23 Rocket - Visible Passes

Search period start: 31 March 2015 00:00
Search period end: 10 April 2015 00:00
Orbit: 839 x 887 km, 81.3° (Epoch: 31 March)

Date Brightness Start Highest point End Pass type
(mag) Time Alt. Az. Time Alt. Az. Time Alt. Az.
31 Mar 4.3 04:17:38 66° ESE 04:18:00 68° E 04:23:34 10° NNE visible
31 Mar 5.7 05:59:56 14° W 06:01:52 16° WNW 06:05:13 10° NNW visible
01 Apr 4.3 04:09:42 68° E 04:09:43 68° E 04:15:16 10° NNE visible
01 Apr 5.7 05:51:59 15° W 05:53:35 17° WNW 05:56:58 10° NNW visible
02 Apr 4.4 04:01:44 66° ENE 04:01:44 66° ENE 04:06:59 10° NNE visible
02 Apr 5.7 05:44:01 16° W 05:45:17 17° WNW 05:48:41 10° NNW visible
03 Apr 4.5 03:53:44 62° ENE 03:53:44 62° ENE 03:58:42 10° NNE visible
03 Apr 5.7 05:36:01 16° WNW 05:36:59 17° WNW 05:40:26 10° NNW visible
04 Apr 4.7 03:45:42 58° NE 03:45:42 58° NE 03:50:24 10° NNE visible
04 Apr 5.7 05:27:59 17° WNW 05:28:42 17° WNW 05:32:10 10° NNW visible
05 Apr 4.8 03:37:38 53° NE 03:37:38 53° NE 03:42:07 10° NNE visible
05 Apr 5.7 05:19:55 17° WNW 05:20:24 17° WNW 05:23:54 10° NNW visible
06 Apr 4.9 03:29:34 50° NE 03:29:34 50° NE 03:33:50 10° NNE visible
06 Apr 5.8 05:11:50 17° WNW 05:12:07 17° WNW 05:15:39 10° NNW visible
07 Apr 5.0 03:21:28 47° NE 03:21:28 47° NE 03:25:32 10° NNE visible
07 Apr 5.8 05:03:44 18° WNW 05:03:49 18° WNW 05:07:23 10° NNW visible
08 Apr 5.2 03:13:20 44° NE 03:13:20 44° NE 03:17:15 10° NNE visible
08 Apr 5.8 04:55:37 18° WNW 04:55:37 18° WNW 04:59:07 10° NNW visible
09 Apr 5.3 03:05:12 42° NE 03:05:12 42° NE 03:08:57 10° NNE visible
09 Apr 5.8 04:47:28 18° WNW 04:47:28 18° WNW 04:50:51 10° NNW visible
